{"data":{"norad_id":49088,"epoch":"2026-05-25T02:37:03.417312Z","epoch_age_seconds":69549,"freshness":"FRESH","line1":"1 49088U 21075P   26145.10906733  .00000036  00000+0  60845-4 0  9996","line2":"2 49088  87.9163  10.4350 0001935  87.8084 272.3269 13.17649989230565","mean_motion":13.17649989,"eccentricity":0.0001935,"inclination_deg":87.9163,"raan_deg":10.435,"arg_perigee_deg":87.8084,"mean_anomaly_deg":272.3269,"bstar":6.0845e-5,"rev_number":23056,"period_min":109.28547125727,"perigee_km":1192.2443187248,"apogee_km":1195.1746233091,"semimajor_km":7571.8464710169,"source":"CELESTRAK","updated_at":"2026-05-25T13:38:22.483345Z"}}